Probability
39 42 48 48 48 55 61 58 58 61 65 58 61 55 52 55 45 45 45 48 42 45 48 39 48 48 39 52 52 52 42 35 39 35 26 26 16 19 35 39 35 32 26
35 42 48 48 45 48 55 58 65 55 61 65 68 68 58 48 48 55 55 52 55 55 42 45 42 45 55 48 52 52 45 32 35 35 32 19 26 23 10 26 39 29 23
35 45 48 45 48 48 52 52 65 65 65 61 55 55 61 48 52 58 61 55 55 52 48 48 42 48 39 39 48 48 42 42 32 39 35 26 19 13 16 23 32 32 35
35 52 42 48 45 52 52 52 58 68 65 65 58 52 55 58 52 55 55 55 58 52 48 52 52 52 45 45 39 42 42 42 35 39 32 32 32 16 13 16 13 29 23
29 45 45 45 52 48 52 58 65 71 74 68 68 61 55 58 55 52 52 58 58 58 58 48 52 48 45 45 45 42 42 39 32 23 23 19 32 23 23 13 13 19 13
42 39 42 52 48 52 52 55 71 71 74 71 68 61 61 61 58 55 55 52 55 52 48 48 45 45 39 45 42 45 35 42 39 39 26 23 23 26 29 19 29 26 23
42 42 48 52 55 58 55 52 68 74 74 68 65 68 68 68 65 52 48 48 42 45 48 39 48 35 39 35 42 45 39 39 42 39 35 32 26 19 23 23 19 23 23
39 35 48 52 58 45 55 55 65 68 68 65 65 61 61 58 55 52 45 42 39 35 35 39 42 42 35 26 39 35 39 45 39 29 39 39 32 26 29 29 32 23 23
39 39 48 48 52 55 58 55 61 68 61 55 58 61 58 52 48 45 45 35 39 32 35 35 35 35 35 35 35 32 42 45 42 32 35 32 32 35 32 32 35 32 13
35 35 45 48 48 55 61 58 55 61 61 52 55 45 48 45 45 42 42 42 42 39 35 35 35 35 35 32 35 32 35 42 39 42 39 39 26 23 26 26 32 32 29
42 42 42 45 42 48 52 52 58 55 48 45 42 42 42 42 42 45 42 42 42 35 35 35 35 39 32 35 45 32 35 32 35 42 39 35 35 26 29 29 29 32 32
35 35 42 42 39 39 52 52 55 45 39 35 39 39 42 45 45 42 45 45 42 42 39 39 35 35 39 42 42 39 32 39 35 39 35 35 26 23 26 29 26 29 32
42 45 42 39 45 52 55 55 45 42 39 39 39 35 32 39 42 39 39 39 39 42 39 39 39 42 42 42 42 39 42 39 35 39 39 26 26 23 23 19 19 26 23
35 35 42 45 52 52 52 52 48 45 35 32 35 42 35 45 39 42 42 42 42 42 42 39 39 39 39 35 39 42 42 42 39 35 32 26 23 23 19 19 19 19 19
32 35 42 48 55 52 52 48 52 48 45 42 39 39 42 39 39 39 42 39 39 39 42 45 39 32 32 32 32 35 29 32 32 29 29 23 19 19 16 16 19 16 13
32 35 39 42 52 52 52 48 48 42 45 42 42 42 45 42 35 32 29 29 35 35 39 35 35 29 26 16 10 19 23 32 29 29 23 16 16 13 6 6 6 6 13
29 32 35 42 48 48 48 45 48 45 48 42 39 45 45 35 32 23 19 26 29 32 32 35 29 29 19 10 10 6 19 23 19 19 19 13 13 13 16 10 6 6 6
23 29 39 45 39 42 45 45 42 45 45 45 45 45 35 35 32 26 29 26 26 32 29 26 19 19 16 6 6 6 10 19 16 16 16 16 13 13 13 16 16 13 13
19 29 29 29 35 42 45 42 39 35 29 35 35 35 35 32 32 32 32 32 26 26 23 23 19 19 19 6 6 3 16 16 16 16 16 16 16 13 10 13 13 16 16
16 19 26 23 29 39 35 32 32 32 29 29 32 35 35 32 32 32 32 29 26 19 23 19 19 19 19 10 0 3 13 13 13 13 13 13 13 13 6 13 13 13 16
23 26 29 29 35 39 32 32 32 29 26 32 32 35 39 32 29 32 29 29 23 19 23 23 23 23 19 13 3 0 13 10 13 10 10 16 10 6 0 6 13 13 10
26 29 39 39 39 42 39 39 35 39 32 35 32 29 39 26 19 29 32 23 19 16 19 23 23 23 23 16 6 3 3 6 10 6 16 13 6 3 0 0 6 3 3
23 26 32 39 32 32 39 35 39 35 35 35 29 32 29 29 26 32 26 16 16 13 13 16 16 16 19 16 3 3 0 0 10 10 6 3 0 0 0 0 0 0 3
26 23 26 32 32 32 32 32 35 29 23 23 32 32 32 19 19 26 19 13 10 10 10 13 13 16 16 10 10 10 3 0 0 3 3 0 0 0 3 0 0 3 3
19 23 26 32 32 32 32 32 29 26 26 26 26 29 26 16 16 16 16 13 16 10 10 10 13 13 13 6 3 3 3 3 6 3 3 3 3 6 6 10 10 10 10
19 23 23 29 32 32 29 29 26 26 26 29 29 19 23 13 10 13 13 10 6 6 6 6 6 6 3 0 0 0 0 0 0 0 3 0 3 3 3 3 6 6 6
Height
5919 5917 5916 5915 5914 5913 5912 5910 5909 5907 5906 5904 5903 5902 5900 5899 5897 5895 5893 5891 5891 5890 5889 5888 5886 5885 5884 5883 5882 5880 5879 5878 5877 5876 5875 5874 5874 5874 5873 5873 5873 5873 5873
5918 5917 5916 5915 5914 5912 5911 5909 5908 5906 5905 5904 5902 5901 5899 5898 5896 5895 5893 5892 5891 5889 5888 5887 5886 5884 5883 5882 5881 5879 5878 5877 5876 5875 5874 5873 5873 5872 5871 5871 5871 5870 5869
5917 5916 5915 5914 5913 5912 5910 5908 5907 5905 5904 5902 5901 5899 5898 5896 5895 5894 5892 5891 5890 5888 5887 5886 5884 5883 5882 5880 5879 5878 5877 5875 5874 5873 5872 5872 5871 5870 5869 5868 5868 5867 5867
5917 5915 5914 5913 5912 5910 5909 5907 5905 5904 5902 5901 5899 5897 5896 5895 5893 5892 5890 5889 5888 5886 5885 5884 5882 5881 5880 5878 5877 5875 5874 5873 5872 5871 5870 5869 5868 5868 5867 5866 5865 5864 5863
5915 5914 5913 5912 5910 5909 5907 5906 5904 5902 5901 5899 5897 5896 5894 5893 5891 5890 5888 5887 5885 5884 5883 5881 5880 5879 5877 5876 5875 5873 5872 5871 5869 5868 5867 5866 5864 5864 5863 5862 5862 5861 5860
5913 5912 5911 5910 5908 5907 5906 5904 5902 5901 5899 5897 5895 5894 5892 5890 5889 5888 5886 5885 5883 5882 5880 5879 5877 5876 5874 5873 5872 5870 5869 5868 5866 5865 5864 5862 5861 5860 5859 5858 5857 5857 5856
5911 5910 5908 5907 5906 5905 5903 5902 5900 5899 5897 5895 5893 5891 5890 5887 5886 5885 5883 5882 5880 5879 5877 5876 5874 5872 5871 5870 5868 5867 5866 5864 5863 5861 5860 5858 5857 5856 5855 5854 5853 5852 5851
5908 5907 5905 5904 5903 5902 5901 5899 5897 5896 5894 5892 5890 5888 5887 5885 5883 5881 5880 5878 5877 5875 5873 5872 5870 5869 5867 5866 5864 5863 5861 5860 5858 5857 5855 5854 5853 5851 5850 5849 5848 5847 5846
5904 5904 5902 5901 5900 5898 5897 5896 5894 5892 5891 5889 5887 5885 5883 5881 5879 5877 5876 5874 5873 5871 5870 5868 5866 5865 5863 5861 5859 5858 5856 5855 5853 5852 5851 5849 5848 5846 5845 5843 5842 5842 5840
5901 5900 5898 5897 5896 5894 5893 5892 5890 5889 5887 5885 5883 5881 5879 5877 5875 5873 5871 5870 5868 5867 5865 5863 5861 5860 5858 5856 5854 5853 5851 5849 5848 5846 5845 5844 5842 5840 5839 5838 5836 5835 5834
5897 5896 5894 5893 5892 5891 5889 5888 5886 5884 5883 5881 5879 5877 5875 5873 5871 5869 5867 5865 5863 5862 5860 5858 5856 5854 5852 5850 5848 5847 5845 5843 5842 5840 5839 5838 5836 5834 5833 5831 5830 5829 5827
5892 5891 5890 5889 5888 5886 5885 5883 5881 5880 5878 5876 5874 5872 5870 5868 5866 5864 5862 5860 5858 5856 5854 5852 5850 5848 5846 5844 5842 5840 5838 5837 5835 5834 5832 5831 5829 5828 5826 5825 5823 5822 5820
5887 5886 5885 5884 5883 5881 5880 5878 5877 5875 5873 5871 5869 5867 5865 5863 5861 5858 5856 5854 5852 5849 5847 5845 5843 5841 5839 5837 5835 5833 5831 5829 5828 5827 5825 5824 5822 5821 5819 5818 5816 5815 5813
5881 5880 5879 5878 5877 5876 5875 5873 5871 5869 5867 5866 5864 5861 5859 5857 5855 5853 5850 5848 5845 5842 5840 5838 5836 5834 5832 5830 5828 5825 5823 5822 5820 5819 5818 5816 5815 5813 5812 5810 5809 5807 5805
5875 5873 5873 5872 5870 5869 5868 5866 5864 5863 5861 5859 5857 5855 5853 5851 5849 5846 5843 5841 5838 5835 5833 5830 5828 5826 5824 5822 5820 5818 5816 5814 5813 5811 5810 5808 5807 5805 5804 5802 5801 5799 5797
5868 5867 5866 5864 5863 5862 5860 5859 5857 5855 5853 5851 5849 5847 5846 5844 5841 5839 5836 5834 5831 5829 5826 5823 5820 5818 5817 5815 5812 5810 5808 5806 5805 5803 5802 5800 5799 5797 5795 5794 5792 5790 5788
5860 5860 5858 5857 5856 5854 5852 5851 5849 5848 5846 5844 5842 5840 5838 5836 5834 5831 5829 5826 5824 5821 5819 5816 5813 5811 5809 5807 5805 5802 5800 5798 5796 5794 5793 5791 5790 5788 5786 5785 5783 5782 5780
5853 5852 5851 5849 5847 5846 5844 5843 5841 5840 5838 5836 5834 5832 5830 5828 5825 5823 5821 5818 5816 5814 5811 5809 5806 5803 5801 5798 5796 5794 5792 5790 5788 5786 5784 5782 5780 5779 5777 5775 5774 5772 5770
5845 5844 5842 5841 5840 5838 5836 5835 5833 5832 5830 5828 5826 5824 5822 5819 5817 5815 5813 5810 5808 5805 5803 5800 5798 5795 5792 5790 5787 5785 5783 5781 5779 5777 5775 5773 5772 5770 5768 5766 5764 5763 5761
5836 5835 5834 5833 5832 5830 5829 5827 5825 5824 5822 5820 5818 5816 5813 5811 5808 5806 5804 5802 5799 5797 5794 5792 5789 5786 5784 5782 5779 5776 5774 5772 5770 5768 5766 5764 5762 5760 5758 5756 5755 5753 5751
5828 5827 5826 5825 5823 5822 5820 5819 5817 5815 5813 5811 5809 5807 5804 5802 5800 5797 5795 5792 5790 5787 5785 5782 5780 5777 5775 5773 5770 5767 5764 5762 5760 5758 5756 5755 5753 5751 5748 5746 5745 5743 5741
5820 5819 5818 5816 5815 5813 5812 5810 5808 5806 5804 5802 5800 5798 5795 5793 5791 5788 5786 5783 5780 5777 5775 5772 5770 5767 5765 5763 5760 5757 5755 5753 5751 5749 5747 5745 5743 5741 5738 5736 5734 5732 5730
5811 5810 5809 5808 5806 5805 5803 5801 5799 5797 5795 5793 5791 5789 5786 5784 5781 5778 5776 5773 5770 5768 5765 5762 5760 5757 5754 5752 5750 5748 5745 5743 5740 5738 5736 5734 5732 5730 5728 5726 5724 5722 5720
5803 5802 5801 5799 5798 5796 5795 5793 5791 5788 5786 5784 5782 5779 5776 5774 5771 5769 5766 5763 5760 5758 5755 5752 5749 5747 5744 5742 5740 5737 5734 5732 5729 5727 5725 5723 5721 5719 5717 5716 5714 5712 5710
5794 5792 5791 5790 5789 5787 5786 5784 5781 5779 5777 5774 5772 5769 5767 5764 5761 5759 5756 5753 5750 5747 5745 5742 5739 5737 5734 5732 5729 5726 5724 5721 5718 5716 5714 5713 5711 5709 5707 5706 5704 5702 5700
5785 5784 5782 5781 5780 5778 5776 5774 5772 5770 5767 5765 5762 5759 5757 5754 5751 5748 5745 5743 5740 5738 5735 5732 5729 5726 5724 5721 5718 5716 5714 5711 5709 5707 5705 5703 5701 5699 5697 5696 5694 5692 5691
Wind_Speed
6 6 5 5 5 5 6 6 7 7 7 7 7 6 6 6 7 7 9 7 7 7 6 6 6 6 6 7 7 7 7 6 6 6 6 6 7 8 9 11 11 12 13
7 6 6 6 6 6 7 7 7 8 8 8 8 7 7 7 7 7 8 7 7 7 8 7 7 7 7 8 8 8 8 7 7 7 8 8 8 9 9 10 11 11 12
7 7 7 7 7 7 7 8 9 9 9 9 9 9 8 8 8 8 8 8 8 9 10 8 8 8 9 9 9 9 9 9 9 9 9 10 10 10 10 11 12 12 13
7 8 8 8 8 8 8 8 8 9 9 10 11 11 10 10 9 9 10 9 9 10 10 9 9 10 10 11 11 11 11 11 11 11 11 12 12 12 12 13 13 14 14
9 10 9 9 9 10 10 10 10 10 10 11 11 11 11 11 11 11 11 11 10 11 10 10 11 11 12 12 12 13 13 12 13 13 13 13 13 13 13 14 14 15 15
11 11 11 10 10 10 11 11 11 11 11 11 11 12 12 12 12 13 13 12 12 12 12 12 13 13 14 14 14 15 14 14 14 14 14 14 14 15 15 15 16 16 16
12 12 12 11 11 11 12 13 13 14 13 13 13 14 14 13 13 14 15 14 14 14 13 14 14 15 16 16 16 16 16 16 16 16 16 16 16 17 17 18 18 19 19
12 12 13 13 13 14 14 14 14 14 15 15 15 15 16 16 16 16 16 16 15 15 15 15 15 16 17 18 18 17 17 18 18 17 17 17 18 18 19 20 20 21 21
14 14 14 15 15 15 15 16 15 16 16 16 16 16 17 18 19 18 18 18 18 17 17 17 17 18 18 19 19 19 19 19 19 19 19 19 19 20 20 21 21 21 21
16 16 16 15 16 16 16 17 17 17 17 18 18 18 19 20 20 18 18 19 18 18 18 19 20 20 21 21 21 21 21 21 22 22 22 21 21 21 22 22 22 22 22
17 17 17 17 17 18 18 19 19 19 18 19 19 20 20 21 20 19 19 20 20 20 20 21 22 22 22 23 23 22 23 23 23 24 23 23 23 23 23 23 24 24 24
18 18 18 18 18 19 20 21 21 20 20 20 20 21 22 22 22 21 21 22 22 22 22 22 23 23 24 24 24 24 25 25 25 25 25 24 24 25 25 25 26 26 26
20 20 20 20 20 21 22 23 22 22 22 22 22 23 23 23 23 23 24 24 25 25 25 25 25 25 25 25 26 26 26 26 25 25 25 25 26 26 26 27 27 27 27
21 21 22 23 23 23 24 24 24 24 24 24 24 24 24 24 24 24 25 26 27 26 26 26 26 27 27 27 27 28 27 27 26 26 26 27 27 27 28 29 28 28 28
24 24 24 25 26 26 26 27 27 26 26 26 26 26 26 25 26 26 27 27 27 27 26 27 28 28 29 28 28 29 28 28 27 27 28 28 28 29 29 29 29 30 30
25 25 26 26 27 27 28 28 28 28 28 28 28 28 28 28 28 28 28 28 27 27 27 28 29 29 30 29 29 29 29 28 28 29 29 29 30 30 30 30 30 30 30
26 26 26 27 27 28 28 29 29 29 29 29 30 30 30 30 30 29 29 28 28 28 28 28 29 29 30 30 30 30 30 30 30 30 30 31 31 31 30 31 31 31 31
28 27 27 27 28 28 28 29 29 29 29 29 30 30 31 30 29 29 29 29 29 29 29 29 30 29 30 31 31 31 32 32 32 32 32 32 31 31 32 32 33 33 32
27 28 28 27 28 28 28 28 28 29 29 30 31 31 31 30 30 30 30 31 31 31 31 31 31 30 30 31 32 32 32 32 32 32 32 32 32 33 33 33 33 33 32
27 27 28 28 28 28 28 29 29 29 29 29 30 31 31 31 32 31 31 32 33 33 33 32 32 31 31 32 32 32 32 32 32 32 32 32 32 32 33 33 33 33 33
27 27 28 28 28 29 29 29 29 29 29 30 30 31 32 32 32 32 32 33 34 35 34 33 33 32 32 33 33 33 33 32 33 33 32 33 33 33 33 34 34 33 33
28 27 28 28 28 28 29 29 29 29 30 30 31 31 33 33 33 33 34 34 35 35 35 35 35 34 33 34 34 34 34 34 34 34 34 34 34 34 34 34 34 34 33
28 27 28 28 28 28 28 29 30 30 30 31 32 33 33 34 34 34 35 34 34 33 33 34 34 34 34 34 34 34 35 35 35 35 35 34 34 34 34 34 34 34 33
28 27 28 28 28 29 29 30 30 31 32 32 33 34 34 34 34 34 34 33 33 33 33 34 33 33 34 34 34 35 35 35 35 35 34 34 33 33 33 33 33 33 33
30 29 29 29 29 30 30 30 31 32 32 33 34 34 34 34 34 33 33 33 33 34 34 34 34 34 34 34 34 34 34 33 33 33 33 32 32 32 32 32 32 31 31
30 30 30 31 30 30 30 30 31 32 33 34 34 34 34 34 34 34 34 34 35 34 35 35 35 35 35 36 36 35 35 33 32 32 32 32 32 32 31 31 31 31 31
Wind_Direction
350 344 337 343 354 356 349 342 339 338 337 337 333 332 336 339 342 340 342 338 339 331 324 336 335 330 329 328 328 325 319 310 305 305 298 291 281 276 271 269 268 267 268
340 338 329 336 335 336 335 331 325 323 323 325 323 319 323 329 334 336 338 339 332 328 323 316 320 322 320 320 324 323 319 317 315 310 303 295 287 283 280 276 274 273 271
321 321 319 321 326 325 323 323 318 315 316 316 315 311 315 318 317 318 321 324 317 315 312 305 310 314 315 313 313 312 309 308 305 303 301 299 292 283 283 286 284 282 278
306 310 310 311 316 317 320 324 322 316 311 310 310 307 307 312 311 311 311 312 310 308 304 302 305 304 305 308 307 309 306 303 300 297 297 295 291 286 282 283 283 284 283
295 299 302 300 303 308 311 315 320 320 313 309 310 309 304 304 306 306 305 305 302 303 298 298 298 299 301 302 302 304 304 301 299 298 296 292 288 285 285 284 282 281 280
292 294 296 297 296 300 305 308 312 314 313 312 311 310 306 300 299 298 299 300 297 296 292 290 292 293 295 296 297 299 299 298 295 293 292 289 287 284 284 283 283 281 281
291 295 294 295 294 293 299 303 308 308 307 305 306 306 306 302 296 296 297 296 293 293 290 290 292 290 291 294 297 295 295 294 293 291 289 287 287 286 285 284 284 283 282
286 291 291 293 294 290 293 299 303 303 302 300 302 301 302 302 299 297 296 293 291 291 291 290 291 290 291 293 294 293 291 290 290 291 289 287 287 286 285 284 284 284 282
281 287 289 290 292 291 291 293 294 297 298 299 299 299 297 298 297 297 297 296 291 289 290 290 289 289 290 290 291 291 290 290 289 290 290 287 287 287 286 284 284 284 282
279 284 288 290 291 290 289 291 296 299 297 298 298 297 295 294 295 297 297 297 293 291 291 290 289 288 288 287 287 288 289 288 288 287 287 287 287 287 286 284 283 284 283
276 278 282 285 287 286 286 290 294 295 296 297 297 297 297 295 293 293 292 292 292 292 292 291 290 289 288 287 287 287 288 288 288 288 287 287 287 286 287 285 283 283 283
274 275 276 281 283 284 285 288 292 292 292 293 294 296 297 294 291 293 290 291 292 291 292 291 291 290 288 287 286 286 286 287 287 286 286 286 286 286 287 286 285 284 284
273 274 275 278 280 283 285 287 290 291 291 292 294 296 296 294 292 293 290 291 291 288 288 288 289 288 288 287 285 284 285 286 287 285 284 285 286 287 287 288 288 286 286
273 272 273 275 277 281 284 286 287 288 289 291 293 294 295 294 294 293 291 291 291 288 287 287 287 286 285 286 285 284 285 286 287 286 284 285 285 286 286 286 287 287 287
274 274 275 276 277 280 283 285 285 286 288 289 290 291 292 293 294 293 293 292 291 291 289 289 287 285 285 285 284 285 285 286 285 285 285 285 286 286 285 286 286 286 285
274 276 277 278 278 279 282 284 285 286 286 286 287 288 289 291 292 292 291 292 290 290 290 290 288 286 285 284 285 285 287 287 286 287 287 286 286 286 285 286 286 285 285
275 276 278 279 279 279 282 283 283 284 286 286 284 286 289 291 292 290 290 290 290 289 288 290 289 288 287 286 286 287 286 286 286 286 286 286 286 285 285 285 286 285 284
276 276 277 279 279 279 280 282 282 283 285 287 286 287 288 289 290 290 289 290 290 290 289 289 290 289 288 287 287 287 287 286 285 284 285 285 284 283 283 282 284 285 285
275 276 277 278 280 280 280 280 281 283 285 285 284 285 286 287 288 290 290 290 290 289 289 289 289 288 287 287 287 287 286 286 285 283 283 282 282 282 282 283 284 285 285
276 277 278 279 279 280 281 281 282 284 284 284 285 285 286 286 286 288 289 289 290 289 287 287 288 287 286 287 287 287 286 285 285 285 284 283 283 283 283 284 285 285 285
277 278 280 280 280 279 280 280 282 283 284 285 285 286 286 288 288 289 291 290 289 288 287 287 287 286 285 285 286 287 287 287 286 286 286 285 285 286 285 285 285 285 285
280 280 280 280 279 280 281 282 283 284 285 286 286 287 288 288 288 289 289 290 290 288 287 286 286 285 284 284 285 286 286 286 286 286 286 285 285 286 285 285 284 285 284
279 278 277 278 279 281 282 283 285 284 285 287 287 288 289 288 288 290 290 290 290 289 287 286 285 285 285 285 285 285 286 286 286 285 285 285 285 285 284 284 284 283 284
276 275 275 277 279 281 281 282 284 285 286 286 287 287 288 288 288 289 289 289 290 288 287 287 285 286 287 286 286 286 287 286 286 285 285 285 284 284 284 284 284 284 283
274 274 275 278 280 281 281 281 283 285 286 287 288 288 287 288 288 288 289 289 290 290 288 288 287 286 286 287 286 287 287 287 287 286 286 285 285 285 285 284 284 284 284
276 275 277 279 280 280 280 281 282 284 286 287 288 288 288 287 286 288 289 289 289 290 290 289 288 287 287 286 286 286 286 286 286 286 287 287 286 284 283 284 283 283 283